CAPE
0 0 0 0 0 0 0 0 0 0 0 0 0 0 0 0 0 0 0 0 0 0 0 0 0 0 0 0 0 0 0 0 4 93 17 0 0 1 4 47 71 43 152 116 410
0 0 0 0 0 0 0 0 0 0 0 0 0 0 0 0 0 0 0 0 0 0 0 0 0 0 0 0 0 0 0 0 0 0 0 0 0 0 1 71 166 173 224 357 407
0 0 0 0 0 0 0 0 0 0 0 0 0 0 0 0 0 0 0 0 0 0 0 0 0 0 0 0 0 0 0 0 0 0 0 0 0 0 0 0 43 299 411 473 389
0 0 0 0 0 0 0 0 0 0 0 0 0 0 0 0 0 0 0 0 0 0 0 0 0 0 0 0 0 0 0 0 0 0 0 0 0 0 0 0 21 232 537 550 450
0 0 0 0 0 0 0 0 0 0 0 0 0 0 0 0 0 0 0 0 0 0 0 0 0 0 0 0 0 0 0 0 0 0 0 0 0 0 0 7 167 374 579 554 483
4 2 1 0 0 0 0 0 0 0 0 0 0 0 0 0 0 0 0 0 0 0 0 0 0 0 0 0 0 0 0 0 0 0 0 0 0 0 89 140 308 480 545 477 418
0 1 1 1 0 0 0 0 0 0 0 0 0 0 0 0 0 0 0 0 0 0 0 0 0 0 0 0 0 0 0 0 0 0 0 0 0 16 273 275 344 509 581 317 324
0 0 1 3 0 0 0 0 0 0 0 0 0 0 0 0 0 0 0 0 0 0 0 0 0 0 0 0 0 0 0 0 0 0 0 0 0 4 107 342 389 426 533 294 241
0 0 0 1 0 0 0 0 0 0 0 0 0 0 0 0 0 0 0 0 0 0 0 0 0 0 0 0 0 0 0 0 0 0 0 0 0 0 11 70 374 540 466 361 248
0 0 0 0 0 0 0 0 0 0 0 0 0 0 0 0 0 0 0 0 0 0 0 0 0 0 0 0 0 0 0 0 0 0 0 0 0 0 0 0 35 368 556 430 269
0 0 0 0 0 0 0 0 0 0 0 0 0 0 0 0 0 0 0 0 0 0 0 0 0 0 0 0 0 0 0 0 0 0 0 0 0 0 0 0 6 300 532 562 499
0 0 0 0 0 0 0 0 0 0 0 0 0 0 0 0 0 0 0 0 0 0 0 0 0 0 0 0 0 0 0 0 0 0 0 0 0 0 2 108 305 474 586 740 762
0 0 0 0 0 0 0 0 0 0 0 0 0 0 0 0 0 0 0 0 0 0 0 0 0 0 0 0 0 0 0 0 0 0 0 0 0 0 103 554 773 687 719 646 613
0 0 0 0 0 0 0 0 0 0 0 0 0 0 0 0 0 0 0 0 0 0 0 0 0 0 0 0 0 0 0 0 0 0 0 0 0 0 136 542 482 307 295 325 699
0 0 0 0 2 0 0 0 0 0 0 0 0 0 0 0 0 0 0 0 0 0 0 0 0 0 0 0 0 0 0 0 0 0 0 0 0 70 175 621 491 260 200 197 260
0 0 0 3 0 0 0 0 0 0 0 0 0 0 0 0 0 0 0 0 0 0 0 0 0 0 0 0 0 0 0 0 0 0 0 0 0 168 468 877 461 349 171 337 873
1 0 2 4 1 0 0 0 0 0 0 0 0 0 0 0 0 0 0 0 0 0 0 0 0 0 0 0 0 0 0 0 0 0 0 0 0 723 963 579 719 277 175 681 843
0 0 1 0 1 0 0 0 0 0 0 0 0 0 0 0 0 0 0 0 0 0 0 0 0 0 0 0 0 0 0 0 0 0 0 0 0 695 868 934 557 127 542 782 654
0 0 0 0 0 0 0 0 0 0 0 0 0 0 0 0 0 0 0 0 0 0 0 0 0 0 0 0 0 0 0 0 0 0 0 3 632 1257 1126 909 235 384 728 635 608
7 0 0 0 7 6 0 0 0 0 0 0 0 0 0 0 0 0 0 0 0 0 0 0 0 0 0 0 0 0 0 0 0 0 0 9 150 181 839 837 428 757 885 665 583
4 0 0 9 3 1 0 0 0 0 0 0 0 0 0 0 0 0 0 0 0 0 0 0 0 0 0 0 0 0 0 0 0 0 0 13 32 444 724 684 888 913 737 662 575
1 0 1 15 3 0 0 0 0 0 0 0 0 0 0 0 0 0 0 0 0 0 0 0 0 0 0 0 0 0 0 0 0 0 0 2 363 583 1067 1140 1057 818 693 619 606
2 4 15 10 0 0 0 0 0 0 0 0 0 0 0 0 0 0 0 0 0 0 0 0 0 0 0 0 0 0 0 0 0 0 10 0 256 973 1208 1141 997 878 649 536 547
6 2 10 4 8 1 3 0 14 0 0 0 0 0 0 0 0 0 0 0 0 0 0 0 0 0 0 0 0 0 0 0 0 0 3 0 676 1104 1292 1052 913 764 525 431 398
6 6 9 4 5 13 13 0 16 6 0 0 0 0 0 0 0 0 0 0 0 0 0 0 0 0 0 14 0 0 0 0 0 0 6 37 254 971 1290 1255 921 666 439 277 201
13 11 0 6 10 7 11 5 26 3 0 0 0 0 0 0 0 0 0 0 0 0 0 0 0 0 0 35 42 7 0 0 1 9 55 170 559 1267 1186 951 831 698 385 270 152
13 22 7 0 5 13 6 2 10 15 0 0 0 0 0 0 0 0 0 0 0 0 0 0 0 0 16 107 216 196 221 266 576 746 469 421 1033 1392 959 761 634 260 63 0 1
CIN
0 0 0 0 0 0 0 0 0 0 0 0 0 0 0 0 0 0 0 0 0 0 0 0 0 0 0 0 0 0 0 -13 -91 -33 -69 0 0 -63 -76 -225 -253 -325 -189 -240 -192
0 0 0 0 0 0 0 0 0 0 0 0 0 0 0 0 0 0 0 0 0 0 0 0 0 0 0 0 0 0 0 0 0 0 0 0 0 0 -79 -115 -162 -242 -258 -204 -243
0 0 0 0 0 0 0 0 0 0 0 0 0 0 0 0 0 0 0 0 0 0 0 0 0 0 0 0 0 0 0 0 0 0 0 0 0 0 0 0 -168 -92 -179 -216 -248
0 0 0 0 0 0 0 0 0 0 0 0 0 0 0 0 0 0 0 0 0 0 0 0 0 0 0 0 0 0 0 0 0 0 0 0 0 0 0 0 -184 -111 -140 -206 -224
-1 0 0 0 0 0 0 0 0 0 0 0 0 0 0 0 0 0 0 0 0 0 0 0 0 0 0 0 0 0 0 0 0 0 0 0 0 0 0 -144 -140 -132 -151 -187 -214
-7 -4 -2 0 0 0 0 0 0 0 0 0 0 0 0 0 0 0 0 0 0 0 0 0 0 0 0 0 0 0 0 0 0 0 0 0 0 0 -90 -122 -118 -171 -147 -180 -218
0 -2 -3 -2 0 0 0 0 0 0 0 0 0 0 0 0 0 0 0 0 0 0 0 0 0 0 0 0 0 0 0 0 0 0 0 0 0 -98 -74 -108 -97 -107 -154 -186 -209
0 0 -2 -2 -1 0 0 0 0 0 0 0 0 0 0 0 0 0 0 0 0 0 0 0 0 0 0 0 0 0 0 0 0 0 0 0 0 -112 -105 -80 -66 -95 -137 -173 -214
0 0 0 -1 0 0 0 0 0 0 0 0 0 0 0 0 0 0 0 0 0 0 0 0 0 0 0 0 0 0 0 0 0 0 0 0 0 0 -182 -93 -35 -87 -130 -154 -198
0 0 0 0 0 0 0 0 0 0 0 0 0 0 0 0 0 0 0 0 0 0 0 0 0 0 0 0 0 0 0 0 0 0 0 0 0 0 0 0 -66 -43 -104 -129 -152
0 0 0 0 0 0 0 0 0 0 0 0 0 0 0 0 0 0 0 0 0 0 0 0 0 0 0 0 0 0 0 0 0 0 0 0 0 0 0 0 -93 -69 -75 -100 -127
0 0 0 0 0 0 0 0 0 0 0 0 0 0 0 0 0 0 0 0 0 0 0 0 0 0 0 0 0 0 0 0 0 0 0 0 0 0 -14 -138 -160 -174 -155 -122 -129
0 0 0 0 0 0 0 0 0 0 0 0 0 0 0 0 0 0 0 0 0 0 0 0 0 0 0 0 0 0 0 0 0 0 0 0 0 0 -179 -106 -149 -236 -285 -275 -248
0 0 0 0 0 0 0 0 0 0 0 0 0 0 0 0 0 0 0 0 0 0 0 0 0 0 0 0 0 0 0 0 0 0 0 0 0 0 -135 -73 -170 -246 -344 -383 -359
0 0 0 -11 0 0 0 0 0 0 0 0 0 0 0 0 0 0 0 0 0 0 0 0 0 0 0 0 0 0 0 0 0 0 0 0 0 -18 -92 -58 -155 -278 -372 -438 -497
0 0 0 -6 0 0 0 0 0 0 0 0 0 0 0 0 0 0 0 0 0 0 0 0 0 0 0 0 0 0 0 0 0 0 0 0 0 -17 -38 -101 -179 -256 -382 -436 -381
0 0 0 0 -1 0 0 0 0 0 0 0 0 0 0 0 0 0 0 0 0 0 0 0 0 0 0 0 0 0 0 0 0 0 0 0 0 -40 -84 -170 -185 -299 -394 -334 -353
-1 -1 0 0 0 0 0 0 0 0 0 0 0 0 0 0 0 0 0 0 0 0 0 0 0 0 0 0 0 0 0 0 0 0 0 0 0 -4 -102 -124 -197 -335 -282 -279 -364
0 0 0 0 0 -1 -1 0 0 0 0 0 0 0 0 0 0 0 0 0 0 0 0 0 0 0 0 0 0 0 0 0 0 0 0 -1 -12 -27 -45 -99 -212 -239 -222 -298 -321
0 0 0 0 0 -1 0 0 0 0 -2 0 0 0 0 0 0 0 0 0 0 0 0 0 0 0 0 0 0 0 0 0 0 0 0 -9 -3 -4 -24 -54 -125 -113 -156 -238 -271
0 0 0 -1 -3 -1 0 0 0 0 0 0 0 0 0 0 0 0 0 0 0 0 0 0 0 0 0 0 0 0 0 0 0 0 0 -4 -3 -3 -2 -47 -76 -139 -175 -195 -234
0 0 0 0 -1 0 0 0 0 0 0 0 0 0 0 0 0 0 0 0 0 0 0 0 0 0 0 0 0 0 0 0 0 0 0 -5 -7 -50 -38 -56 -99 -151 -170 -187 -203
0 -1 -1 -3 0 0 -1 -1 0 0 0 0 0 0 0 0 0 0 0 0 0 0 0 0 0 0 0 0 0 0 0 0 0 -1 -4 0 -12 -59 -50 -74 -94 -121 -161 -190 -177
-1 -1 0 -4 -9 -4 -3 -3 -3 -1 0 0 0 0 0 0 0 0 0 0 0 0 0 0 0 0 0 0 0 0 0 0 0 0 -3 -2 -35 -52 -40 -85 -121 -137 -182 -186 -187
0 0 -1 -1 0 0 -1 0 -6 -3 0 0 0 0 0 0 0 0 0 0 0 0 0 0 0 0 -2 -5 0 0 0 0 0 0 -3 -5 -4 -20 -32 -53 -100 -144 -186 -225 -238
0 0 0 0 0 0 -1 -2 -4 -2 0 0 0 0 0 0 0 0 0 0 0 0 0 0 0 0 -1 -12 -6 -17 0 0 0 -14 -3 -9 -4 -5 -47 -87 -88 -99 -153 -155 -231
-1 -1 0 0 -2 0 -1 -15 -3 -3 0 0 0 0 0 0 0 0 0 0 0 0 0 0 0 0 -1 -4 -3 -6 -9 -8 -27 -36 -4 -5 -25 -84 -105 -94 -103 -185 -274 0 0
Wind_Speed
28 28 29 29 30 30 30 30 30 29 29 30 30 30 30 29 25 17 15 15 12 13 15 14 8 14 20 21 21 19 21 18 13 13 10 12 12 13 11 15 17 18 20 20 23
29 30 29 30 30 30 31 30 31 31 30 30 31 31 31 30 22 16 16 14 8 11 16 22 25 7 21 22 20 24 23 17 14 10 12 13 13 13 12 17 17 19 20 22 23
31 31 31 31 30 32 31 31 31 31 31 31 31 31 30 28 20 15 18 12 7 7 10 26 26 28 30 24 24 24 24 17 17 17 16 15 15 14 13 13 15 16 19 20 20
31 32 32 33 33 32 32 33 32 32 32 32 31 31 30 22 19 16 16 8 6 14 4 8 16 28 29 30 27 27 26 22 19 19 18 19 18 16 14 7 19 18 19 20 20
32 32 32 33 33 34 34 34 35 34 33 33 32 30 26 25 22 15 15 11 12 11 11 9 20 29 30 30 28 31 26 26 25 22 21 20 19 19 16 14 16 18 19 19 18
32 33 33 34 34 35 35 36 36 36 35 34 32 29 25 28 17 16 15 13 16 13 14 14 16 19 27 28 31 21 31 28 25 25 24 22 20 15 13 13 14 15 17 17 17
33 33 34 34 35 36 37 37 38 37 37 35 32 25 28 29 19 16 17 17 17 17 15 15 17 9 15 20 22 26 27 26 29 26 23 21 21 12 12 11 11 12 13 15 15
32 33 34 34 35 36 37 38 39 39 38 33 25 23 28 21 20 23 19 18 16 16 16 14 14 15 17 16 15 26 27 30 24 21 20 18 11 12 13 12 10 10 11 12 13
32 33 33 34 35 36 37 38 38 35 29 21 22 24 31 17 20 17 16 18 12 13 14 12 12 15 12 15 17 16 24 12 12 17 17 15 16 13 15 17 14 10 10 10 10
32 32 33 34 35 36 37 38 32 22 20 21 24 25 25 20 16 16 17 13 13 9 11 13 15 16 15 14 17 18 20 18 20 15 18 13 21 18 18 20 19 15 9 8 8
32 33 33 31 33 35 35 27 23 21 19 22 21 23 20 19 20 17 13 12 14 12 15 13 18 21 20 19 26 21 21 22 15 13 17 16 18 20 20 20 20 20 18 10 6
32 32 33 31 31 33 27 23 22 24 32 30 35 35 35 24 23 19 15 14 17 19 16 16 23 19 22 20 20 19 18 19 18 18 22 17 21 17 19 18 20 20 21 16 5
32 32 32 31 31 25 23 19 22 24 32 32 27 32 25 26 27 21 18 18 18 21 19 22 20 18 18 19 19 20 20 21 22 16 21 24 24 16 16 17 19 20 21 20 17
30 31 31 30 22 23 19 18 23 24 32 30 24 26 20 18 29 21 18 19 21 22 20 27 16 17 19 22 18 20 20 24 22 21 26 15 29 12 15 16 20 22 22 22 19
29 28 28 23 20 17 19 22 23 18 32 19 18 15 15 16 15 20 13 20 23 20 18 21 23 21 19 19 17 20 18 22 21 20 22 18 22 11 11 18 21 21 20 20 19
27 26 26 17 16 20 22 24 17 21 32 22 18 18 17 21 21 9 18 19 25 21 25 22 19 22 20 15 17 16 15 15 17 18 20 18 15 14 16 18 19 19 19 19 19
26 23 21 19 17 22 22 16 19 28 20 22 22 19 23 22 21 16 18 20 20 22 23 24 20 17 20 18 13 14 13 16 18 18 21 12 12 15 12 14 17 17 17 18 18
23 20 16 13 16 19 17 14 25 23 27 21 23 23 25 22 24 20 19 20 23 23 22 24 28 21 16 19 15 17 15 20 23 19 13 13 16 12 10 13 14 15 15 17 18
20 18 18 16 9 13 12 23 26 29 26 29 30 30 25 25 22 22 23 20 19 18 21 22 25 18 21 19 21 16 24 24 20 17 15 10 15 11 9 11 12 13 14 16 17
20 20 19 14 10 10 12 19 31 30 27 26 29 23 28 27 27 25 24 22 18 18 18 20 23 20 17 18 22 21 18 19 20 19 20 17 12 12 7 10 10 12 14 15 16
19 20 20 15 10 9 13 14 29 33 30 26 26 27 23 24 30 29 25 20 19 16 16 15 20 17 16 22 17 18 18 21 21 21 19 19 17 7 6 7 7 10 12 14 15
19 21 19 12 14 13 13 13 23 33 33 32 29 25 24 23 29 29 32 21 20 16 16 12 18 14 17 17 21 19 19 17 19 17 24 23 13 5 6 6 7 8 11 14 15
19 19 17 14 18 15 15 20 19 35 41 32 29 23 23 23 25 27 29 25 21 19 19 14 18 13 14 15 17 21 20 17 19 20 16 23 17 4 4 6 6 8 11 13 15
18 20 17 15 14 18 20 18 28 33 42 41 32 29 27 22 21 24 24 21 23 22 18 17 19 24 18 17 11 17 16 17 18 22 23 22 9 5 4 4 6 9 11 13 15
16 18 17 20 15 13 14 17 34 37 38 40 40 37 32 25 20 17 19 23 22 22 22 22 20 19 17 11 12 14 15 17 22 25 24 19 14 7 5 4 7 9 11 14 17
16 16 17 17 15 13 7 6 33 34 38 44 43 31 29 29 24 25 24 22 24 26 25 27 23 18 14 11 8 10 9 10 12 10 14 13 11 1 3 4 6 8 11 15 19
12 11 15 14 13 10 7 22 26 29 33 41 36 41 40 34 31 29 30 33 33 24 27 23 18 16 13 10 6 7 5 5 8 11 10 10 9 2 3 3 6 10 13 16 19
Wind_Direction
307 306 309 327 303 306 301 304 305 306 306 307 306 304 304 304 294 295 297 296 309 106 113 113 231 267 251 247 247 260 239 232 275 245 318 345 239 126 268 81 93 84 58 82 109
303 301 299 304 298 297 297 297 302 305 304 304 305 303 304 304 285 297 300 311 8 92 127 149 166 167 249 250 255 223 226 242 253 281 276 265 235 249 165 102 87 73 72 89 111
300 298 299 294 291 297 292 293 297 299 300 300 302 301 300 300 280 302 306 320 40 49 293 198 197 193 214 243 240 231 219 244 235 244 250 253 248 253 197 130 100 98 82 94 110
303 300 295 295 291 289 290 292 292 294 294 298 298 300 296 304 281 302 312 336 360 285 8 302 212 187 199 211 231 213 226 230 238 241 247 264 262 251 211 261 6 65 87 99 109
301 301 299 291 291 290 290 289 292 289 288 295 294 298 302 288 287 307 306 299 298 299 294 292 260 207 204 215 228 216 229 232 231 240 248 259 256 252 268 31 38 63 80 86 96
299 298 298 296 291 290 289 289 288 286 286 288 291 297 300 278 305 299 300 290 284 288 285 279 276 264 239 232 217 256 227 233 246 243 254 254 273 332 352 27 44 59 69 78 88
303 297 296 296 292 288 289 288 285 283 284 283 288 299 288 280 296 293 290 287 282 281 283 278 279 284 285 267 260 247 243 252 242 249 264 274 267 344 351 7 23 45 58 71 84
311 306 301 295 292 286 286 286 283 282 282 287 294 295 285 297 294 284 280 280 283 280 280 280 282 276 276 290 283 252 250 242 250 269 278 285 323 350 340 345 10 42 58 69 89
319 310 304 299 295 293 287 280 277 285 294 299 294 289 281 298 289 288 280 277 281 283 281 277 278 279 282 276 274 272 259 260 282 277 282 284 299 334 318 307 326 9 36 57 77
323 319 311 303 300 297 292 279 288 305 305 297 288 285 277 286 287 285 283 271 277 273 277 267 271 272 271 264 267 270 262 272 270 288 276 287 279 299 303 302 308 320 27 31 36
321 317 316 314 305 302 301 305 301 300 296 284 289 276 284 283 280 276 276 262 270 260 260 257 261 260 265 265 265 275 270 269 273 292 283 283 287 296 299 309 312 299 310 6 62
325 321 314 315 314 306 305 302 302 299 285 280 269 266 262 279 274 266 264 252 256 256 254 264 259 266 268 268 267 271 273 270 277 282 274 287 284 308 310 314 315 306 295 331 15
329 322 318 315 312 316 313 310 310 305 285 283 277 268 267 261 263 260 250 247 251 252 249 259 274 260 265 264 266 269 270 271 273 283 278 278 282 300 312 315 313 312 303 316 316
340 333 322 314 329 321 315 318 313 305 283 278 279 275 262 263 260 251 246 247 254 250 253 257 264 270 259 262 265 270 273 271 274 276 275 279 277 294 306 314 316 313 312 313 315
347 343 336 336 334 334 320 313 311 311 281 286 273 285 271 236 273 237 228 245 249 253 246 258 257 258 261 263 264 270 278 274 275 277 277 284 283 299 312 309 314 316 315 320 324
349 348 342 347 335 318 312 307 308 290 276 282 278 265 256 247 259 235 215 243 250 250 253 258 266 259 257 266 267 272 281 286 279 278 277 280 280 293 304 310 317 322 325 324 333
350 349 347 339 337 320 310 305 290 277 298 279 274 264 253 250 243 234 202 218 234 235 245 249 258 263 260 256 257 263 261 275 273 273 284 285 289 307 327 332 329 331 339 344 341
353 355 359 350 339 322 310 290 276 296 271 290 275 268 254 249 242 234 213 211 233 240 248 243 250 245 253 253 259 253 251 267 272 272 279 292 285 297 328 336 342 350 352 350 350
3 4 355 3 9 344 303 270 277 278 286 271 270 260 253 245 247 236 229 216 217 230 252 241 255 242 256 250 255 253 255 264 282 291 282 291 300 314 320 335 345 351 356 354 355
2 359 358 14 33 8 323 281 266 270 281 275 259 263 253 242 241 234 232 228 216 228 246 257 249 256 240 251 254 264 256 259 266 273 274 293 289 300 296 319 337 344 348 356 360
6 356 8 21 35 352 312 295 275 265 269 267 262 260 258 250 242 235 233 248 215 213 237 262 256 255 231 245 245 253 259 262 271 276 280 289 292 314 308 328 341 344 351 357 1
8 353 7 24 342 336 313 315 296 267 259 256 261 259 255 256 242 241 234 241 226 220 217 249 256 247 239 255 264 249 259 253 264 276 276 292 307 327 326 337 344 349 348 355 358
6 3 12 5 339 323 316 309 289 267 246 247 248 254 259 256 241 238 235 236 238 220 219 226 249 237 254 260 258 256 260 263 271 281 285 285 295 296 324 331 340 346 348 354 354
11 359 3 3 351 338 329 310 284 256 244 240 242 248 250 254 251 237 231 240 236 224 224 229 252 247 257 257 241 255 261 263 268 274 283 287 291 275 288 305 329 337 340 343 347
16 7 9 359 351 336 332 326 261 242 240 234 235 237 241 243 241 232 242 240 233 228 228 233 247 249 273 272 267 270 260 262 267 275 276 293 290 267 282 295 318 327 334 339 341
11 11 13 4 1 356 335 325 239 239 234 227 229 235 237 233 241 243 246 239 234 233 233 234 243 251 264 277 276 280 281 274 276 286 294 300 314 9 346 340 339 339 339 340 341
27 32 19 16 17 27 48 185 244 242 237 230 230 231 233 240 251 252 249 242 235 234 228 225 236 242 252 267 267 275 280 289 293 295 303 306 315 355 332 321 333 336 335 336 340